Location: Campillo
(40.8621°N, 4.2488°W)
Time: 22:19:09
(UTC+00:00)

USA 306 - Pass Details

Date: 25 September 2021
Orbit: 564 x 573 km, 54.0° (Epoch: 24 September)

Event Time Altitude Azimuth Distance (km) Brightness Sun altitude
Rises 20:55:30 0° 314° (NW) 2,763 7.5 -31.1°
Reaches altitude 10° 20:57:52 10° 322° (NW) 1,865 6.3 -31.5°
Enters shadow 20:59:26 20° 335° (NNW) 1,332 5.2 -31.8°
